Flag for Germany Weather past 2 weeks in Bad Kreuznach, Rhineland-Palatinate, Germany

Now
57 °F

Clear.


Feels Like: 55 °F
Forecast: 40 / 69 °F
Wind: 9 mph from Northeast

Location: Wiesbaden Airport


UV Index: 3 (Moderate)

Visibility: N/A


Pressure: 29.79 "Hg

Humidity: 72%

Dew point: 48 °F

Location of Bad KreuznachLocation

Historic Weather in Bad Kreuznach

°F

Bad Kreuznach temperature yesterday

Maximum temperature yesterday: 64 °F (at 4:58 PM)
Minimum temperature yesterday: 41 °F (at 6:58 AM)
Average temperature yesterday: 53 °F

Past Weeks' High & Low Weather Summary

 TemperatureHumidityPressure
High69 °F (Apr 7, 4:58 PM)100% (Apr 6, 3:58 AM)30.45 "Hg (Apr 6, 3:58 AM)
Low32 °F (Apr 16, 3:58 AM)31% (Apr 17, 5:58 PM)29.78 "Hg (Apr 5, 1:58 AM)
Average53 °F65%30.09 "Hg
* Reported Apr 5 1:58 AM — Apr 20 1:58 AM, Bad Kreuznach, Weather by CustomWeather, © 2014

Note: Actual official high and low records may vary slightly from our data, if they occured in-between our weather recording intervals... More about our weather records

Advertising

Historic Weather Conditions — Data for Previous 24 hours

 ConditionsComfort  
Time TempWeatherWind HumidityBarometerVisibility
1:58 AM
Apr 20
57 °FClear.9 mph72%29.79 "HgN/A
12:58 AM57 °FClear.12 mph75%29.81 "HgN/A
11:58 PM
Apr 19
55 °FPassing clouds.13 mph77%29.83 "HgN/A
10:58 PM56 °FClear.14 mph72%29.85 "HgN/A
9:58 PM57 °FClear.13 mph67%29.86 "HgN/A
8:58 PM57 °FSunny.14 mph64%29.86 "HgN/A
7:58 PM59 °FSunny.14 mph59%29.86 "HgN/A
6:58 PM63 °FSunny.9 mph52%29.85 "HgN/A
5:58 PM63 °FSunny.13 mph52%29.85 "HgN/A
4:58 PM64 °FSunny.14 mph49%29.86 "HgN/A
3:58 PM63 °FSunny.14 mph49%29.87 "HgN/A
2:58 PM61 °FSunny.18 mph48%29.90 "HgN/A
1:58 PM59 °FSunny.13 mph48%29.93 "HgN/A
12:58 PM55 °FSunny.10 mph55%29.97 "HgN/A
11:58 AM54 °FSunny.13 mph54%29.98 "HgN/A
10:58 AM50 °FPartly sunny.8 mph62%30.00 "HgN/A
9:58 AM48 °FOvercast.9 mph62%30.01 "HgN/A
8:58 AM48 °FPartly sunny.7 mph66%30.01 "HgN/A
7:58 AM45 °FPartly sunny.7 mph71%30.00 "HgN/A
6:58 AM41 °FPassing clouds.7 mph79%29.98 "HgN/A
5:58 AM44 °FPassing clouds.9 mph73%29.98 "HgN/A
4:58 AM43 °FPassing clouds.7 mph75%29.97 "HgN/A
3:58 AM42 °FPassing clouds.7 mph76%29.97 "HgN/A
Weather by CustomWeather, © 2014

See weather overview